Regional Weather Roundup
Issued by NWS

Home | Current Version | Previous Version | Graphics & Text | Print | Product List | Glossary On
Versions: 1 2 3 4 5 6 7 8 9 10 11 12 13 14 15 16 17 18 19 20 21 22 23 24 25 26 27 28 29 30 31 32 33 34 35 36 37 38 39 40 41 42 43 44 45 46 47 48 49 50
000
ASUS43 KIND 281609
RWRIN

WEATHER ROUNDUP FOR INDIANA
NATIONAL WEATHER SERVICE INDIANAPOLIS IN
1200 PM EDT THU AUG 28 2014

NOTE: "FAIR" INDICATES FEW OR NO CLOUDS BELOW 12,000 FEET WITH NO
SIGNIFICANT WEATHER AND/OR OBSTRUCTIONS TO VISIBILITY.

* - STATION DOES NOT REPORT WEATHER SUCH AS PRECIPITATION OR FOG.

+ - STATION NOT QUALITY CONTROLLED BY THE NATIONAL WEATHER SERVICE.
    USE DATA WITH CAUTION...ESPECIALLY DEWPOINT AND RELATIVE
    HUMIDITY OBSERVATIONS.

INZ001>003-010>013-019-020-281700-
NORTHWEST INDIANA

CITY           SKY/WX    TMP DP  RH WIND       PRES   REMARKS
GARY /AIRPORT/ MOSUNNY   73  59  60 NE7       30.13F
KNOX *+        SUNNY     72  61  68 E3        30.12F
LA PORTE +     SUNNY     72  60  67 SE3       30.14S
MICHIGAN CITY+ SUNNY     72  59  64 CALM      30.13S
MONTICELLO +   MOSUNNY   74  65  74 CALM      30.11S
RENSSELAER +   PTSUNNY   73  68  83 SE3       30.12S
VALPARAISO     SUNNY     73  62  68 E3        30.13F

$$

LMZ046-743>745-281700-
SOUTHERN LAKE MICHIGAN

STATION/POSITION TIME  TEMP WIND        PRES
                       AIR  DIR/SP/G
                 (UTC) (F)  (DEG/KT/KT) (MB)
MICHIGAN CITY    1600   66  360/  8/  9   N/A

$$

INZ004-005-014>016-021>024-281700-
NORTH CENTRAL INDIANA

CITY           SKY/WX    TMP DP  RH WIND       PRES   REMARKS
GOSHEN         MOSUNNY   73  62  68 E6        30.13F
LOGANSPORT +   SUNNY     75  61  60 E5        30.12F
PERU/GRISSOM   SUNNY     75  68  79 E6        30.11F
ROCHESTER +    MOSUNNY   77  64  65 SE6       30.13S
SOUTH BEND     SUNNY     73  58  59 CALM      30.14F
WARSAW +       MOSUNNY   73  64  73 E6        30.13F

$$

INZ006>009-017-018-025>027-281700-
NORTHEAST INDIANA

CITY           SKY/WX    TMP DP  RH WIND       PRES   REMARKS
ANGOLA *+      CLOUDY    70  61  73 VRB5      30.15S
AUBURN +       MOSUNNY   72  61  68 CALM      30.16S
FORT WAYNE     PTSUNNY   72  64  76 E7        30.15S
HUNTINGTON +   CLOUDY    73  64  74 E6        30.13F

$$

INZ028-029-035-036-043>045-051>053-281700-
WEST CENTRAL INDIANA

CITY           SKY/WX    TMP DP  RH WIND       PRES   REMARKS
GREENCASTLE +  PTSUNNY   73  66  78 SE3       30.11R
LAFAYETTE      MOSUNNY   75  66  73 E8        30.10F
TERRE HAUTE    MOSUNNY   77  68  73 NE5       30.09R

$$

INZ030>032-037>040-046>048-054>057-064-065-281700-
CENTRAL INDIANA

CITY           SKY/WX    TMP DP  RH WIND       PRES   REMARKS
CP ATTERBURY + MOSUNNY   79  68  69 NE3       30.10F
FRANKFORT +    PTSUNNY   76  66  72 E7        30.12F
INDIANAPOLIS   PTSUNNY   75  66  73 SE7       30.09S
-EAGLE CREEK   CLOUDY    74  64  71 E6        30.10S
KOKOMO *+      SUNNY     73  64  73 SE7       30.12S
MARION +       SUNNY     75  62  64 SE5       30.13F
MT COMFORT *+  MOSUNNY   77  66  69 E7        30.11F
SHELBYVILLE    MOSUNNY   78  66  66 E6        30.09F
ZIONSVILLE +   MOSUNNY   76  64  66 E8        30.12R

$$

INZ033-034-041-042-049-050-058-059-281700-
EAST CENTRAL INDIANA

CITY           SKY/WX    TMP DP  RH WIND       PRES   REMARKS
MUNCIE         CLOUDY    74  63  68 E8        30.13S

$$

INZ060-061-067>069-081>083-085>088-281700-
SOUTHWEST INDIANA

CITY           SKY/WX    TMP DP  RH WIND       PRES   REMARKS
EVANSVILLE     SUNNY     86  74  67 E3        30.05F
WASHINGTON +   SUNNY     83  72  70 CALM      30.05F

$$

INZ062-063-066-070>080-084-089>092-281700-
SOUTH CENTRAL AND SOUTHEAST INDIANA

CITY           SKY/WX    TMP DP  RH WIND       PRES   REMARKS
BLOOMINGTON    SUNNY     81  65  58 E6        30.09S

$$




USA.gov is the U.S. government's official web portal to all federal, state and local government web resources and services.